Change the Weather History Date:

Saturday, January 4, 2014

  Actual Average Record
Temperature  
Mean Temperature 15 °F 21 °F  
Max Temperature 26 °F 34 °F 62 °F (2012)
Min Temperature 4 °F 9 °F -32 °F (1950)
Degree Days  
Heating Degree Days 50 44  
Month to date heating degree days 195 176  
Since 1 July heating degree days 3218 3111  
Cooling Degree Days 0 0  
Month to date cooling degree days 0 0  
Year to date cooling degree days 0 0  
Moisture  
Dew Point 6 °F    
Average Humidity 67    
Maximum Humidity 83    
Minimum Humidity 51    
Precipitation  
Precipitation T in 0.01 in 0.49 in (1949)
Month to date precipitation 0.06 0.04  
Year to date precipitation 0.06 0.04  
Sea Level Pressure  
Sea Level Pressure 30.18 in    
Wind  
Wind Speed 14 mph (NNW)    
Max Wind Speed 30 mph    
Max Gust Speed 38 mph    
Visibility 10 miles    
Events      
T = Trace of Precipitation, MM = Missing Value Source: NWS Daily Summary

Daily Weather History Graph

Daily Weather History Graph

Search for Another Location

Airport or City:

Trip Planner

Search our weather history database for the weather conditions in past years. The results will help you decide how hot, cold, wet, or windy it might be!

Date:

Astronomy

Jan. 04, 2014 Rise Set
Actual Time 7:21 AM MST 4:21 PM MST
Civil Twilight 6:48 AM MST 4:54 PM MST
Nautical Twilight 6:12 AM MST 5:30 PM MST
Astronomical Twilight 5:37 AM MST 6:05 PM MST
Moon 9:19 AM MST (1/4) 8:53 PM MST (1/4)
Length of Visible Light 10h 06m
Length of Day
9h 00m
Waxing Crescent, 16% of the Moon is Illuminated
Jan 4
Waxing Crescent
Jan 7
First Quarter
Jan 15
Full
Jan 23
Last Quarter
Jan 30
New

Hourly Weather History & Observations

Time (MST) Temp. Windchill Dew Point Humidity Pressure Visibility Wind Dir Wind Speed Gust Speed Precip Events Conditions
12:55 AM 25.0 °F 8.9 °F 18.0 °F 75% 29.89 in 10.0 mi NW 26.5 mph 32.2 mph 0.00 in   Overcast
1:55 AM 23.0 °F 6.9 °F 16.0 °F 74% 29.93 in 10.0 mi NNW 24.2 mph 31.1 mph N/A   Overcast
2:26 AM 21.2 °F 4.2 °F 15.8 °F 80% 29.89 in 10.0 mi NNW 25.3 mph 29.9 mph N/A   Scattered Clouds
2:55 AM 21.0 °F 6.2 °F 15.1 °F 78% 29.97 in 10.0 mi NNW 18.4 mph 26.5 mph N/A   Mostly Cloudy
3:40 AM 21.2 °F 10.1 °F 15.8 °F 80% 29.94 in 10.0 mi NW 10.4 mph - N/A   Mostly Cloudy
3:55 AM 21.9 °F 10.4 °F 16.0 °F 78% 30.01 in 10.0 mi NNW 11.5 mph - N/A   Overcast
4:19 AM 21.2 °F 5.6 °F 14.0 °F 74% 29.95 in 10.0 mi NNW 20.7 mph 31.1 mph N/A   Scattered Clouds
4:55 AM 19.0 °F 6.8 °F 10.9 °F 71% 30.02 in 10.0 mi NNW 11.5 mph - N/A   Clear
5:55 AM 17.1 °F -1.0 °F 9.0 °F 71% 30.02 in 10.0 mi NNW 24.2 mph 32.2 mph N/A   Clear
6:55 AM 15.1 °F 0.5 °F 7.0 °F 70% 30.08 in 10.0 mi NNW 13.8 mph - N/A   Clear
7:55 AM 15.1 °F 1.8 °F 6.1 °F 68% 30.16 in 10.0 mi NW 11.5 mph - N/A   Clear
8:55 AM 16.0 °F -0.9 °F 3.9 °F 59% 30.17 in 10.0 mi NNW 19.6 mph 23.0 mph N/A   Clear
9:55 AM 16.0 °F -1.3 °F 3.0 °F 57% 30.21 in 10.0 mi North 20.7 mph 27.6 mph N/A   Clear
10:55 AM 16.0 °F 1.1 °F 3.9 °F 59% 30.25 in 10.0 mi NNW 15.0 mph - N/A   Clear
11:55 AM 15.1 °F 1.1 °F -0.9 °F 49% 30.24 in 10.0 mi NNW 12.7 mph - N/A   Partly Cloudy
12:55 PM 16.0 °F 0.6 °F -0.0 °F 49% 30.22 in 10.0 mi North 16.1 mph - N/A   Clear
1:55 PM 16.0 °F 1.1 °F 3.0 °F 57% 30.24 in 10.0 mi NNW 15.0 mph - N/A   Overcast
2:55 PM 15.1 °F 0.5 °F 1.9 °F 56% 30.27 in 10.0 mi North 13.8 mph - N/A   Partly Cloudy
3:55 PM 12.0 °F -0.4 °F 1.0 °F 61% 30.31 in 10.0 mi North 9.2 mph - N/A   Clear
4:55 PM 12.0 °F -2.0 °F 1.9 °F 64% 30.33 in 9.0 mi North 11.5 mph - N/A   Overcast
5:55 PM 10.0 °F -3.7 °F 3.0 °F 73% 30.35 in 10.0 mi North 10.4 mph - 0.00 in   Mostly Cloudy
6:55 PM 9.0 °F -3.2 °F 1.9 °F 73% 30.38 in 10.0 mi NNE 8.1 mph - N/A   Overcast
7:55 PM 8.1 °F -6.2 °F 1.0 °F 73% 30.40 in 10.0 mi North 10.4 mph - N/A   Overcast
8:55 PM 6.1 °F -7.8 °F -0.9 °F 73% 30.42 in 10.0 mi NNE 9.2 mph - N/A   Overcast
9:55 PM 5.0 °F -5.6 °F -0.9 °F 76% 30.42 in 10.0 mi North 5.8 mph - N/A   Overcast
10:55 PM 5.0 °F -5.6 °F -2.0 °F 73% 30.42 in 10.0 mi NE 5.8 mph - N/A   Overcast
11:55 PM 3.9 °F - -2.9 °F 73% 30.43 in 10.0 mi Calm Calm - N/A   Overcast